Tracking 29892 objects as of 21-Nov-2024
HD Live streaming from Space Station
objects crossing your sky now

FENGYUN 1C DEB

Track FENGYUN 1C DEB now!
10-day predictions


NORAD ID: 30273
Int'l Code: 1999-025YJ
Perigee: 849.8 km
Apogee: 940.7 km
Inclination: 98.9 °
Period: 102.7 minutes
Semi major axis: 7266 km
RCS: 0.029 m2 (small)
Launch date: May 10, 1999
Source: People's Republic of China (PRC)
Launch site: Taiyaun Space Center, China (TSC)

Note: This is SATELLITE DEBRIS
Your satellite tracking list
Your tracking list is empty




NASA's NSSDC Master Catalog

Two Line Element Set (TLE):
1 30273U 99025YJ  24325.52562956  .00001655  00000-0  11018-2 0  9996
2 30273  98.8635 345.2065 0062558 248.7824 266.3670 14.01655523911027
Source of the keplerian elements: AFSPC